TimePDT,TemperatureF,Dew PointF,Humidity,Sea Level PressureIn,VisibilityMPH,Wind Direction,Wind SpeedMPH,Gust SpeedMPH,PrecipitationIn,Events,Conditions,WindDirDegrees,DateUTC
12:53 AM,51.1,41.0,68,29.94,10.0,Calm,Calm,-,N/A,,Clear,0,2012-10-08 07:53:00
1:53 AM,50.0,43.0,77,29.94,9.0,Calm,Calm,-,N/A,,Clear,0,2012-10-08 08:53:00
2:53 AM,48.9,42.1,77,29.94,9.0,Calm,Calm,-,N/A,,Clear,0,2012-10-08 09:53:00
3:53 AM,48.0,43.0,83,29.94,8.0,Calm,Calm,-,N/A,,Clear,0,2012-10-08 10:53:00
4:53 AM,48.0,44.1,86,29.94,8.0,Calm,Calm,-,N/A,,Clear,0,2012-10-08 11:53:00
5:53 AM,46.9,43.0,86,29.94,8.0,Calm,Calm,-,N/A,,Clear,0,2012-10-08 12:53:00
6:53 AM,46.0,41.0,83,29.95,9.0,South,3.5,-,N/A,,Clear,190,2012-10-08 13:53:00
7:53 AM,46.0,42.1,86,29.96,7.0,South,3.5,-,N/A,,Clear,170,2012-10-08 14:53:00
8:53 AM,48.9,43.0,80,29.97,8.0,Calm,Calm,-,N/A,,Clear,0,2012-10-08 15:53:00
9:53 AM,52.0,43.0,71,29.98,9.0,SSE,3.5,-,N/A,,Clear,160,2012-10-08 16:53:00
10:53 AM,57.9,42.1,56,29.98,10.0,South,5.8,-,N/A,,Clear,190,2012-10-08 17:53:00
11:53 AM,61.0,39.9,46,29.98,8.0,SW,5.8,-,N/A,,Clear,230,2012-10-08 18:53:00
12:53 PM,64.0,39.0,40,29.98,10.0,West,4.6,-,N/A,,Clear,280,2012-10-08 19:53:00
1:53 PM,66.0,39.9,38,29.96,10.0,Variable,5.8,-,N/A,,Clear,0,2012-10-08 20:53:00
2:53 PM,68.0,41.0,37,29.96,10.0,WSW,4.6,-,N/A,,Clear,240,2012-10-08 21:53:00
3:53 PM,66.0,45.0,47,29.96,10.0,West,6.9,-,N/A,,Clear,280,2012-10-08 22:53:00
4:53 PM,66.0,44.1,45,29.96,10.0,West,5.8,-,N/A,,Clear,260,2012-10-08 23:53:00
5:53 PM,64.0,45.0,50,29.96,10.0,WSW,3.5,-,N/A,,Clear,250,2012-10-09 00:53:00
6:53 PM,60.8,46.4,59,29.97,10.0,Variable,6.9,-,N/A,,Clear,0,2012-10-09 01:53:00
7:53 PM,55.9,46.0,69,29.99,10.0,West,8.1,-,N/A,,Clear,260,2012-10-09 02:53:00
8:53 PM,54.0,46.9,77,30.01,9.0,WSW,6.9,-,N/A,,Clear,250,2012-10-09 03:53:00
9:53 PM,52.0,46.9,83,30.03,9.0,WSW,6.9,-,N/A,,Clear,250,2012-10-09 04:53:00
10:53 PM,51.1,46.0,83,30.04,8.0,SW,3.5,-,N/A,,Clear,230,2012-10-09 05:53:00
11:53 PM,50.0,46.9,89,30.06,8.0,SSW,4.6,-,N/A,,Clear,210,2012-10-09 06:53:00